Theta_e
287 288 289 289 290 291 291 292 293 294 294 294 294 293 292 291 291 290 289 287 287 287 287 286 286 286 285 284 283 281 280 280 279 279 279 279 280 280 280 279 279 279 278 278 278 278 278 278 278 278 278 278 277 277 277 277 277 277 277 276 277 277
287 288 288 289 289 289 290 290 291 292 293 293 293 292 291 290 289 288 287 286 286 285 284 284 284 284 284 283 281 280 280 280 279 279 278 279 280 280 279 279 279 278 278 278 278 278 277 277 277 277 277 277 277 277 277 276 277 277 276 276 276 277
286 286 287 288 287 287 288 289 290 291 291 291 292 292 290 290 289 288 288 286 285 284 283 283 282 282 282 281 280 280 280 279 279 279 279 279 279 279 279 279 279 278 278 277 278 277 277 277 277 277 277 277 277 276 277 276 276 276 276 276 276 276
285 285 285 285 286 287 287 288 288 289 289 290 290 290 289 289 288 288 287 286 285 284 283 282 282 281 280 280 279 279 279 279 279 279 279 279 279 279 279 279 278 277 277 277 277 277 277 277 277 276 277 277 276 276 277 276 276 276 276 277 276 275
285 286 286 286 287 287 287 287 288 288 288 288 289 289 289 289 288 288 287 286 285 284 283 282 281 280 279 279 279 279 278 278 278 278 279 279 279 279 279 278 278 277 277 277 278 277 277 277 277 276 276 277 277 277 277 277 277 276 276 276 276 275
284 284 285 285 286 286 286 287 287 287 288 288 288 288 288 288 288 287 286 285 285 284 282 282 281 279 279 279 279 279 278 278 278 278 279 279 278 278 278 277 278 277 278 278 277 277 276 276 276 276 277 277 278 278 278 277 276 276 277 277 276 275
284 285 285 286 286 286 286 287 287 287 287 287 287 287 287 287 287 287 286 285 284 283 282 281 280 280 279 279 278 278 278 278 278 278 278 278 277 277 277 277 278 278 278 278 277 277 277 277 277 277 277 278 278 278 278 277 277 276 276 276 276 277
285 285 285 285 286 286 286 286 287 287 287 287 287 287 285 286 285 286 286 285 284 283 282 281 280 280 279 278 278 278 278 278 278 278 278 278 278 277 277 277 277 278 278 278 278 278 278 278 278 278 277 277 277 277 277 277 277 276 276 275 276 276
284 285 285 285 285 286 286 286 287 287 287 287 286 286 286 285 285 285 286 285 284 283 282 282 281 280 279 279 279 279 278 278 278 278 278 278 278 277 277 278 278 278 278 278 278 278 278 278 278 278 277 277 277 277 277 276 276 275 275 275 275 275
285 285 285 285 285 285 286 286 287 287 287 287 286 286 285 285 284 284 285 285 284 284 283 282 282 281 280 279 279 279 279 279 279 279 279 278 278 278 278 278 278 278 278 278 278 279 279 278 278 278 277 277 277 276 276 276 276 275 275 274 274 275
285 285 285 285 285 285 285 285 286 286 286 287 286 285 285 285 284 284 284 284 285 284 284 282 282 281 280 280 279 279 279 279 279 279 278 278 278 279 278 278 279 278 278 278 278 278 278 278 278 278 277 277 276 276 276 276 276 275 275 274 274 274
285 285 285 284 285 285 285 285 285 286 286 286 286 285 285 284 284 284 284 284 284 285 284 283 282 281 280 279 279 279 279 279 279 279 279 279 279 279 278 278 278 278 278 278 278 278 278 278 278 280 281 280 277 276 276 276 275 275 275 275 274 274
285 285 285 285 285 285 285 286 286 286 286 286 285 285 284 284 284 284 284 284 284 284 283 283 282 281 280 280 280 279 279 279 279 279 279 279 279 278 278 278 278 278 278 278 278 278 278 278 278 281 283 283 282 277 276 276 276 275 275 275 274 274
286 285 286 286 286 285 285 285 285 285 285 286 285 285 284 284 284 284 284 283 283 283 283 283 282 281 281 280 280 280 279 279 279 279 279 279 278 278 278 278 278 278 278 278 278 278 278 278 281 283 284 284 284 281 277 276 276 276 275 274 274 274
288 287 287 287 286 286 286 286 285 285 285 285 285 284 283 283 283 283 283 282 282 282 282 282 282 282 281 281 281 280 280 279 279 279 279 278 279 278 278 278 278 278 278 278 278 277 278 277 281 283 284 285 285 284 280 276 276 276 275 274 274 274
289 288 288 288 287 287 286 285 285 285 285 285 284 283 283 283 282 283 282 281 281 281 281 282 282 282 281 281 281 280 279 279 279 279 279 279 279 278 278 278 278 278 278 278 278 277 277 277 281 283 284 285 285 286 283 276 276 276 275 274 274 274
289 288 287 287 285 284 284 284 284 284 284 284 283 283 282 282 282 282 282 281 281 280 281 282 282 282 281 281 280 280 279 279 279 279 279 279 279 278 278 278 278 278 278 278 278 277 277 277 282 283 285 285 286 286 286 278 276 275 275 274 274 274
289 289 288 284 284 284 284 284 284 283 283 283 283 282 282 282 281 281 281 281 280 280 281 282 282 282 281 280 280 279 279 279 279 279 279 279 279 278 278 278 278 278 278 278 277 277 277 277 282 283 284 285 286 286 284 279 276 275 274 274 274 274
287 287 284 283 284 283 283 283 283 283 282 282 281 281 281 281 281 281 281 280 280 281 281 282 282 281 281 280 280 279 279 279 279 279 279 278 279 278 278 278 278 278 278 278 277 277 277 277 281 283 284 285 286 286 283 280 277 275 274 274 274 274
284 284 283 282 282 282 282 282 282 282 281 281 280 280 280 280 280 280 280 280 280 281 281 281 281 281 280 280 279 279 279 279 278 277 277 278 278 278 278 278 278 278 278 278 277 277 277 278 279 283 284 284 285 285 282 280 277 276 275 275 274 273
281 281 282 282 281 281 281 282 282 281 280 280 279 280 279 280 280 280 280 280 280 280 280 280 280 280 280 279 279 278 278 278 278 278 278 279 279 278 278 278 278 277 277 277 278 279 278 277 278 281 283 284 285 284 282 280 277 277 276 275 275 274
281 281 281 281 280 280 281 281 281 280 280 279 279 279 279 280 280 279 280 279 280 280 280 281 281 280 280 280 279 279 279 279 279 278 278 278 278 278 278 277 277 277 277 276 276 276 277 276 275 277 282 283 284 285 283 280 278 277 277 277 276 275
281 280 279 279 280 280 281 281 281 280 279 279 279 279 279 279 279 280 280 279 279 280 280 280 281 281 280 280 279 280 279 279 279 279 278 278 277 277 276 276 276 276 276 275 274 274 274 274 274 275 280 281 283 284 284 281 279 279 278 277 276 275
280 279 279 279 280 280 281 281 280 279 279 279 278 277 279 280 280 280 280 280 280 280 280 280 281 281 281 281 280 279 279 279 279 279 278 278 277 276 276 276 275 275 275 274 273 273 273 274 276 273 277 280 281 283 284 282 280 279 277 276 275 274
279 279 279 279 279 280 281 281 279 279 279 279 278 279 280 281 281 281 281 280 280 280 280 281 281 281 281 280 280 280 279 278 278 278 277 277 276 276 275 275 274 273 273 273 273 272 272 271 271 276 273 277 279 281 282 283 282 283 278 275 275 276
279 279 278 278 279 279 281 281 280 279 279 278 279 279 280 280 280 281 281 281 280 280 280 280 280 280 280 280 280 279 278 277 277 276 276 276 275 275 274 274 273 273 272 273 273 272 271 270 269 273 276 275 277 278 280 281 282 283 279 276 276 277
279 279 278 278 278 278 279 279 280 280 280 280 281 281 281 281 281 281 281 280 280 280 280 279 279 279 279 279 279 278 277 276 276 275 274 275 275 274 274 273 273 272 272 272 272 272 270 269 268 267 271 276 276 278 279 280 280 281 281 279 278 277
279 279 279 278 278 279 278 279 281 281 279 279 280 280 280 281 281 281 280 280 279 279 278 278 278 278 278 278 279 278 278 277 276 276 274 274 274 274 274 273 272 272 271 271 270 270 268 265 265 266 265 270 274 276 278 279 279 279 280 280 278 280
279 278 278 277 275 276 276 277 277 278 278 278 279 280 280 280 280 279 279 278 278 277 278 278 277 277 276 277 277 277 277 276 276 275 274 273 273 272 272 271 271 270 269 269 268 266 265 263 262 263 263 263 265 267 269 271 271 275 276 275 274 275
278 277 276 275 274 273 272 272 273 274 276 277 278 279 280 279 279 278 277 276 276 275 276 276 272 274 275 274 275 275 274 273 274 274 274 273 272 272 270 269 269 269 270 269 268 266 264 265 264 263 264 264 263 263 263 263 263 263 263 265 267 267
277 276 275 274 272 271 270 269 268 268 270 272 273 278 278 276 275 274 274 273 274 273 272 273 273 273 273 271 267 266 267 270 270 271 267 266 268 271 271 270 269 269 267 268 267 266 266 265 265 267 271 267 270 266 262 261 263 263 263 267 272 270
277 275 274 273 272 270 268 267 265 265 264 265 267 272 273 272 272 271 269 269 270 269 270 269 268 268 269 269 268 269 270 272 275 271 268 266 273 276 277 276 268 266 265 265 265 266 267 265 265 274 276 276 276 276 276 273 273 273 270 272 276 275
275 273 271 269 268 266 265 264 262 262 262 263 264 270 272 272 271 270 269 269 268 268 268 267 266 265 266 267 268 268 268 267 271 277 277 276 276 277 278 278 278 277 274 268 260 265 275 275 276 277 277 278 278 278 278 278 278 278 278 278 276 274
273 271 268 266 265 264 263 262 261 261 261 261 263 266 270 271 272 270 267 267 266 267 266 265 265 264 265 263 263 266 266 267 266 268 276 277 277 278 278 278 278 278 277 277 274 268 267 274 277 277 277 278 278 278 278 278 278 278 279 279 279 275
270 268 266 264 263 263 262 262 261 260 260 261 262 265 268 268 269 267 266 265 265 265 265 265 265 264 264 264 263 263 265 265 265 265 262 268 276 277 277 277 278 278 278 278 278 278 276 276 277 277 277 276 276 277 276 277 277 277 277 277 273 272
268 266 264 263 262 262 262 261 259 258 258 259 262 266 267 266 266 266 265 265 265 265 264 263 263 262 262 261 262 262 263 261 262 262 264 263 263 267 270 273 275 275 275 276 276 276 275 275 275 275 275 275 275 274 275 274 272 275 275 272 267 268
265 264 263 263 262 262 261 260 258 257 257 258 261 265 265 264 264 263 263 263 263 263 262 262 262 261 260 260 260 261 260 260 258 260 262 262 263 262 259 257 259 268 273 270 271 273 274 273 273 274 273 273 273 272 272 271 265 264 264 264 264 264
264 263 262 261 261 261 260 258 257 257 255 257 260 263 263 263 263 262 262 261 261 261 261 260 260 260 260 260 258 258 259 259 260 259 257 257 257 257 256 255 255 258 265 268 268 271 271 272 272 271 271 271 270 269 269 257 256 256 257 258 258 258
Wind_Speed
8 9 9 8 9 9 10 9 9 8 9 10 12 14 13 13 11 9 7 8 7 8 10 11 10 8 8 8 8 9 10 10 8 8 8 7 7 8 8 7 7 7 6 7 8 7 7 6 7 7 8 8 8 7 7 5 6 8 7 5 7 6
7 8 9 10 10 9 9 9 8 10 10 10 10 7 8 9 11 10 10 9 8 8 7 8 9 10 11 9 9 9 9 10 10 9 8 9 8 7 8 8 8 9 9 7 8 8 7 7 7 7 8 7 8 8 8 6 6 8 8 6 5 6
6 6 6 6 5 5 6 8 11 11 8 9 10 12 12 13 12 11 10 9 9 9 10 9 8 9 8 9 9 10 9 8 8 8 8 8 8 9 9 9 9 8 8 8 8 9 9 9 8 6 7 7 8 6 7 6 7 9 6 7 6 4
5 5 5 5 6 7 9 8 8 9 10 9 9 9 10 11 11 11 10 9 9 11 10 10 7 8 7 9 9 9 8 8 8 8 8 10 9 9 9 9 7 7 8 8 8 7 7 7 8 7 7 8 8 7 5 7 7 8 7 7 7 6
6 7 8 9 10 9 9 8 9 10 10 9 9 10 10 10 10 10 10 10 10 10 9 9 9 9 8 9 9 9 9 8 7 6 9 9 8 6 7 8 8 8 7 7 7 6 6 7 7 6 7 8 9 9 7 7 8 9 9 8 8 7
4 5 7 9 9 9 10 10 9 9 9 10 9 11 10 9 9 10 10 9 9 9 9 10 9 10 9 10 9 10 8 8 6 6 7 7 7 8 5 5 6 7 8 8 7 6 6 6 6 6 6 8 8 9 9 8 7 7 7 8 8 8
7 9 9 9 9 8 9 10 10 10 11 10 11 10 9 9 8 10 11 11 11 10 10 10 10 11 11 10 9 10 8 8 7 6 7 7 7 6 6 5 4 6 7 8 8 7 7 7 7 7 6 5 5 6 7 7 7 6 6 7 8 7
8 7 8 8 9 10 9 10 10 11 11 12 10 10 9 9 8 10 11 11 11 11 12 12 11 12 12 11 10 11 10 9 8 8 6 7 8 7 6 7 6 6 7 6 7 7 7 6 6 6 6 5 5 5 5 6 6 6 6 6 6 7
10 10 9 9 8 9 9 10 11 11 11 11 11 10 10 10 10 11 11 11 12 12 13 13 13 12 12 11 11 10 10 10 9 9 9 8 8 8 8 7 7 6 6 6 6 6 6 6 6 6 6 5 5 5 6 6 6 5 5 5 6 6
8 9 10 9 9 9 9 10 11 12 12 13 11 10 10 9 10 11 11 11 12 13 13 12 11 11 11 10 10 11 11 10 10 10 8 8 9 9 9 9 9 7 5 6 6 5 5 6 5 5 5 5 6 6 6 6 6 6 5 5 5 5
10 9 8 10 9 11 12 10 11 10 9 9 9 10 11 10 10 11 12 12 13 13 11 10 10 9 10 10 10 10 10 10 9 9 8 8 8 7 8 7 8 8 7 6 6 5 5 6 6 6 7 7 6 6 6 6 6 6 6 5 5 5
7 7 8 9 12 12 12 12 12 12 12 12 10 11 9 10 11 12 11 12 12 9 9 10 9 10 9 9 10 9 9 9 9 9 9 9 8 8 7 7 7 7 8 8 7 6 6 6 5 6 10 8 7 7 6 5 6 6 6 6 5 5
7 7 10 12 13 15 14 13 11 10 11 10 10 11 10 10 11 11 11 11 8 8 8 9 9 9 9 9 8 7 9 9 9 9 9 9 8 8 8 8 8 8 7 7 7 7 6 6 5 9 11 12 11 6 6 7 7 6 6 6 7 8
8 10 13 14 13 12 12 12 11 9 12 10 10 9 8 10 11 11 11 9 8 8 10 9 9 10 9 9 8 8 8 8 8 9 8 8 8 7 7 8 9 7 7 6 6 7 6 6 6 11 12 13 13 11 8 6 6 6 7 7 7 7
11 11 12 10 11 12 14 10 9 13 11 10 9 8 10 11 10 10 10 8 8 8 8 9 10 10 9 9 9 8 9 9 9 9 9 9 8 7 8 9 9 9 7 8 8 7 6 6 8 12 13 14 15 15 11 5 7 6 7 8 8 8
8 9 10 10 9 8 6 9 11 8 7 9 8 11 11 11 10 10 9 8 8 9 9 9 10 10 10 9 9 9 9 9 10 9 8 8 8 9 8 8 9 8 8 8 8 7 6 6 8 13 14 15 16 16 13 6 7 6 7 8 8 8
8 7 6 6 4 4 7 7 8 7 8 9 10 10 10 10 10 9 9 9 8 9 9 11 11 11 10 9 9 10 10 11 9 10 9 9 10 11 10 10 9 8 7 6 6 7 7 7 11 14 15 16 17 17 13 6 6 6 6 7 7 9
8 8 8 4 6 6 8 9 8 9 8 8 9 9 9 9 9 9 8 9 9 10 10 11 10 9 9 9 8 9 9 9 10 10 7 7 6 5 5 5 6 8 8 7 7 7 9 8 13 15 16 17 17 18 10 6 7 7 7 8 9 10
6 7 4 4 5 6 6 6 8 8 8 8 7 8 8 9 9 9 8 9 9 10 10 10 10 9 8 9 9 9 8 8 8 7 6 7 7 7 7 7 7 6 7 8 8 9 9 7 11 16 17 17 19 13 8 7 7 7 8 10 10 9
1 0 3 4 4 5 6 7 9 9 8 8 7 8 7 8 8 7 8 8 8 9 9 9 9 10 9 9 10 9 7 5 4 6 6 7 6 6 5 5 5 4 6 8 9 10 10 8 8 14 16 17 18 13 9 7 7 8 8 9 9 7
2 4 5 6 6 5 7 8 10 9 8 7 7 7 8 8 7 8 8 7 6 6 7 8 9 9 9 9 9 9 9 9 8 6 6 6 6 6 5 5 5 5 5 7 8 7 8 6 6 13 15 16 16 12 7 7 6 8 9 8 9 7
5 5 5 6 5 6 8 8 9 8 8 7 7 7 8 7 6 5 5 6 7 7 7 7 9 8 9 8 6 6 7 6 7 7 7 5 5 5 5 5 6 8 7 5 5 6 7 7 6 6 13 14 14 15 9 6 6 10 11 9 9 9
5 5 4 5 7 7 7 8 9 8 7 8 7 7 6 5 6 7 7 7 7 7 7 6 8 9 7 8 8 7 7 6 7 7 6 6 5 5 5 6 6 6 6 5 6 6 6 6 6 6 11 13 14 16 14 7 9 9 8 9 9 9
7 7 6 4 7 7 8 8 9 8 8 7 6 5 6 7 7 8 8 9 8 8 8 8 6 7 8 7 8 8 6 5 6 7 7 6 6 7 7 6 6 6 5 4 5 5 6 5 7 5 9 14 15 15 17 10 9 8 7 9 10 9
7 6 6 5 5 6 6 9 9 7 7 8 6 6 7 8 8 8 9 8 8 8 8 8 9 8 7 7 8 8 8 6 6 6 6 7 6 7 7 7 6 5 5 5 5 4 5 4 4 7 6 9 13 14 15 16 11 10 7 8 11 11
7 7 5 4 4 5 6 9 9 7 7 6 5 7 7 7 8 8 8 8 8 8 8 8 8 7 7 8 7 7 7 7 7 6 6 6 6 6 6 5 5 5 5 6 6 4 3 3 4 6 8 6 11 12 14 15 16 16 7 7 9 9
9 8 7 5 5 4 4 5 9 8 8 5 6 7 8 8 8 8 8 8 8 8 7 6 6 6 6 6 8 8 7 6 7 6 4 6 6 6 6 6 5 6 6 4 5 3 3 4 4 4 6 11 12 14 15 16 17 17 18 12 10 7
8 9 9 7 5 5 4 4 5 8 5 4 5 5 7 8 8 8 8 7 6 6 7 7 5 5 5 6 5 6 6 8 7 6 6 5 5 5 5 4 4 4 4 5 3 3 3 2 3 4 3 5 7 8 12 15 16 16 17 16 13 16
10 9 8 8 5 6 6 6 7 5 5 5 5 6 6 7 7 6 6 6 6 5 6 7 6 6 5 5 4 4 5 5 5 5 5 5 5 4 4 4 5 4 4 6 5 3 3 3 3 3 3 3 4 4 4 5 6 8 10 8 7 9
10 9 9 8 6 6 7 7 7 6 6 5 4 6 7 7 7 7 7 7 6 6 6 6 7 7 5 4 4 5 5 4 5 5 6 6 6 6 5 6 5 6 6 5 4 3 2 4 3 4 5 5 5 5 4 3 3 4 4 6 7 6
10 9 10 8 6 7 8 8 7 6 6 4 3 6 8 8 7 7 7 6 6 6 5 6 6 6 6 6 6 5 3 5 5 6 3 1 3 6 6 6 5 5 3 5 4 5 5 3 4 6 6 7 8 7 5 4 6 5 4 8 11 7
11 11 10 7 6 6 8 8 6 5 6 4 2 6 9 8 8 8 6 6 6 6 6 6 6 6 6 7 7 7 6 6 7 4 5 1 1 3 3 5 4 4 4 4 3 3 5 5 5 5 5 6 8 10 11 12 11 10 8 9 13 9
10 12 12 8 6 8 7 7 5 5 5 4 3 5 8 9 8 7 6 6 6 6 6 6 6 5 6 6 7 7 7 7 7 9 8 7 6 5 4 5 5 7 7 6 2 3 6 6 4 3 4 5 5 7 7 8 8 10 13 15 10 7
9 11 10 6 6 7 6 7 5 5 4 4 3 4 7 7 9 8 6 6 5 6 5 6 6 6 6 6 5 7 7 7 7 6 8 9 7 7 7 6 5 5 5 6 5 3 1 3 3 3 4 4 4 5 5 6 8 9 10 11 11 6
8 8 7 7 6 7 6 8 5 4 4 4 3 5 8 7 9 9 7 6 6 6 6 6 6 6 6 6 6 5 6 7 7 8 5 5 8 11 11 10 10 9 9 10 11 9 7 7 8 9 9 9 9 9 8 7 9 11 14 11 6 5
8 8 7 7 7 7 6 7 4 5 4 4 4 7 9 8 8 7 7 7 7 7 6 6 6 6 5 5 5 6 6 5 6 7 8 8 7 6 8 11 13 11 11 12 12 10 10 10 10 10 10 10 10 9 8 8 6 8 11 10 4 4
10 8 7 7 7 7 8 6 4 4 4 4 4 8 9 9 8 7 7 9 7 6 7 6 6 6 6 6 6 6 6 5 4 6 8 8 7 7 6 1 5 10 12 8 9 10 11 10 9 10 11 12 11 10 8 8 6 5 5 6 5 4
9 8 6 6 7 7 8 5 3 4 3 2 4 8 9 8 8 7 7 6 7 7 6 6 6 5 6 6 6 5 5 6 6 6 5 4 4 6 6 4 3 1 5 11 11 12 10 9 9 10 11 12 13 12 9 4 4 4 3 3 4 4
Wind_Direction
205 200 200 200 197 196 197 195 193 195 194 192 193 191 186 182 181 181 179 177 175 176 179 176 177 181 180 176 170 167 171 173 171 176 166 144 150 154 158 156 159 160 162 158 151 153 150 144 140 137 131 130 126 130 130 140 135 124 122 128 124 131
206 201 196 196 196 193 192 190 191 200 196 191 195 186 172 172 179 177 179 178 170 177 178 185 182 177 175 172 168 174 179 176 171 172 164 163 156 162 158 162 168 168 164 165 157 154 153 148 144 142 135 131 134 140 138 152 139 128 131 132 123 130
207 204 205 202 195 194 186 190 196 198 194 197 191 185 182 184 183 177 181 168 179 173 181 180 178 182 176 167 173 174 177 176 173 177 169 145 167 163 168 172 172 170 166 160 164 160 160 153 148 143 137 134 137 139 141 146 143 133 133 132 128 130
200 199 195 189 183 192 194 195 193 196 199 199 193 191 192 185 181 182 172 177 178 182 180 180 178 175 169 168 170 177 174 173 177 175 160 172 170 169 170 170 167 166 165 163 164 163 154 149 145 145 142 143 141 142 149 150 144 137 139 141 145 149
198 196 195 194 196 195 192 193 197 198 197 195 197 193 197 187 185 177 174 178 181 183 178 173 175 167 174 173 173 177 174 175 177 174 172 170 165 166 171 169 165 166 162 159 157 155 155 154 149 151 149 152 153 153 159 159 152 150 153 158 161 156
187 191 201 201 201 197 196 196 196 197 200 199 194 201 190 184 181 176 173 179 182 175 171 177 171 171 175 179 178 177 175 171 171 170 173 164 153 162 164 163 164 159 164 160 160 160 152 150 152 155 163 161 161 160 161 160 157 156 164 164 159 158
198 206 203 203 204 202 197 198 197 195 199 197 199 200 189 182 177 178 178 177 177 176 179 179 174 177 180 181 177 179 169 168 163 168 171 154 157 159 152 159 164 166 167 168 164 159 161 164 161 161 162 162 161 164 161 162 158 162 171 171 165 165
213 215 209 206 206 201 200 202 200 201 200 201 196 193 186 185 173 181 177 177 179 181 184 182 179 184 182 179 179 177 171 166 165 166 164 161 158 156 164 163 167 174 174 168 167 164 161 158 159 161 162 160 157 157 162 159 161 167 172 169 169 171
224 219 211 207 206 203 202 202 202 203 203 202 196 193 186 183 177 179 182 182 183 183 189 186 185 181 181 183 180 174 170 169 165 164 167 165 161 162 165 167 169 176 174 168 162 164 160 157 160 163 161 160 162 163 162 164 165 169 172 175 175 178
227 220 213 208 210 205 210 208 206 202 201 202 194 189 185 184 181 181 185 184 188 191 190 186 181 182 183 182 177 177 173 168 166 169 163 159 164 168 173 173 175 169 164 166 168 163 156 160 160 160 156 162 170 171 170 172 174 173 178 174 182 184
225 217 211 211 204 209 209 208 208 206 207 204 195 189 193 179 178 186 188 189 194 194 184 176 179 183 180 179 177 175 172 166 161 159 159 162 165 170 172 169 165 160 164 164 163 158 160 168 175 171 172 170 178 180 177 177 180 179 180 181 185 192
228 215 207 209 210 210 208 208 208 204 201 201 193 190 189 172 187 188 191 196 198 188 176 175 176 179 176 174 178 173 161 160 159 160 163 171 173 166 160 159 160 165 172 166 167 167 165 180 181 182 181 183 179 179 178 175 182 185 185 184 188 202
223 213 211 216 211 211 208 209 206 199 203 201 191 190 184 176 185 193 192 196 188 179 168 172 179 171 174 174 163 159 162 163 163 164 167 169 167 163 159 156 164 174 171 172 172 172 182 184 181 179 189 190 187 177 183 185 189 188 190 192 194 206
219 216 219 219 215 210 206 207 199 191 206 193 190 185 169 180 188 191 194 189 178 174 173 174 168 168 170 165 168 164 163 159 162 168 169 166 162 160 155 166 176 168 168 169 173 185 185 184 176 188 195 196 193 188 191 193 191 190 197 198 203 213
229 225 228 224 216 208 211 194 181 202 196 183 185 159 175 185 187 188 188 182 174 171 167 166 166 168 167 171 167 162 160 164 166 167 167 171 168 155 165 175 168 175 170 172 181 186 183 187 185 193 199 202 204 201 192 199 197 194 203 203 207 212
247 234 230 227 220 211 193 184 193 189 171 170 161 172 178 179 184 182 182 171 171 165 164 166 167 169 169 166 165 162 164 165 172 171 168 158 157 168 171 174 177 171 176 178 180 184 182 190 190 199 204 207 209 209 199 200 201 206 207 207 210 215
256 257 251 240 207 173 163 181 177 154 159 165 168 174 171 178 175 178 175 172 167 162 165 168 172 169 163 166 163 163 167 170 168 168 169 170 174 174 177 176 175 178 171 171 176 181 192 200 197 203 208 212 213 214 210 194 200 210 215 216 217 223
250 249 249 196 170 177 177 178 160 156 163 156 162 164 168 168 174 175 168 169 165 167 170 167 165 164 165 161 159 164 170 173 172 169 161 159 160 151 147 159 164 173 174 177 181 189 206 208 199 205 211 214 215 215 214 196 198 211 218 222 224 226
238 240 204 165 172 162 167 145 145 142 141 151 156 156 160 165 173 175 171 167 166 167 166 164 161 159 148 155 161 169 169 169 167 163 154 159 164 168 175 173 179 175 174 186 192 199 212 209 202 206 211 214 216 212 215 201 201 213 218 228 228 230
302 5 144 136 129 136 132 138 138 136 141 145 145 150 156 165 175 169 166 166 165 164 162 160 152 151 159 161 168 169 162 145 135 146 149 156 155 164 173 177 176 174 185 195 203 205 210 214 200 208 214 216 216 213 214 208 205 220 224 236 237 228
105 110 106 117 122 131 132 132 131 132 137 141 146 150 158 173 171 169 172 164 154 148 146 145 147 152 157 164 168 163 160 164 162 152 151 159 164 173 162 165 176 193 200 207 212 210 214 223 204 210 218 219 219 217 217 209 210 225 234 235 245 234
92 85 101 113 124 125 125 127 126 129 134 140 144 155 170 174 159 141 126 130 141 143 146 150 150 155 159 158 146 148 154 143 140 154 159 159 162 161 164 176 189 201 212 199 206 212 213 217 218 210 221 222 224 221 218 213 207 231 237 236 241 249
80 95 104 117 125 125 125 124 121 126 134 142 152 170 159 142 130 133 133 131 134 138 142 146 152 153 156 154 155 152 146 153 154 147 154 161 161 165 175 188 196 207 215 199 206 207 217 208 216 213 217 226 226 227 224 222 226 232 241 244 246 243
86 88 82 99 122 126 127 124 122 130 139 146 156 155 141 134 134 133 135 140 144 148 149 151 150 149 149 144 139 145 149 153 153 161 166 166 169 181 190 191 199 206 216 206 204 208 215 209 207 211 220 224 229 230 230 231 237 227 231 249 252 250
92 96 109 116 122 129 131 125 127 136 141 147 161 149 140 138 138 138 139 141 145 151 152 151 152 148 148 151 154 156 163 161 161 161 163 166 169 181 189 195 195 200 215 218 220 214 216 215 215 219 218 232 238 240 241 244 248 238 213 228 249 252
106 103 98 103 114 125 131 131 132 138 141 153 150 136 133 135 137 136 139 145 149 149 153 157 156 151 151 154 155 158 156 162 165 161 168 166 169 175 187 197 189 200 217 225 233 217 208 194 188 227 230 227 238 245 248 251 253 255 240 219 242 254
119 109 90 80 86 85 100 125 132 135 135 149 137 139 138 138 137 140 145 148 151 153 149 145 147 150 154 155 156 156 153 150 150 152 158 159 171 177 190 200 188 204 219 227 238 227 193 186 188 209 227 231 230 235 238 243 246 248 251 254 255 247
99 100 97 70 58 64 69 80 115 126 130 122 123 126 132 136 139 143 146 140 137 137 135 137 138 141 146 150 157 157 157 158 165 163 160 165 177 183 188 193 176 206 213 231 236 226 208 174 177 209 233 243 243 244 246 247 249 252 254 257 263 267
103 98 93 82 47 58 52 64 54 72 97 104 113 117 120 121 119 114 108 114 111 117 133 137 144 137 130 136 122 118 129 134 146 143 149 162 168 167 179 177 181 196 204 225 226 211 191 195 196 211 227 246 240 249 261 270 281 285 281 281 293 300
109 105 96 83 63 63 64 60 54 42 53 63 86 110 111 112 120 126 127 125 129 129 132 127 123 124 113 99 106 112 103 99 130 146 159 173 173 174 189 185 198 202 209 221 208 195 205 227 221 220 219 224 214 232 236 248 267 265 266 274 276 275
106 104 98 91 81 82 76 67 55 36 41 41 73 118 112 111 108 108 107 109 107 99 90 104 106 115 115 104 79 53 87 132 131 132 94 51 164 173 174 189 202 206 208 187 185 190 223 219 223 238 210 206 200 196 195 220 230 232 233 237 248 258
113 110 101 87 84 77 73 68 55 39 17 18 27 111 114 115 106 100 96 98 103 106 103 99 98 106 115 118 115 103 65 74 104 120 136 167 128 169 178 143 176 194 167 167 221 191 192 205 221 236 235 228 226 224 213 211 212 213 214 229 245 245
108 107 95 85 83 76 78 71 40 36 19 19 12 105 118 116 105 102 102 102 106 116 117 115 106 103 109 117 120 112 108 81 56 74 87 109 117 117 124 138 136 147 152 150 176 247 216 220 248 262 263 272 278 279 288 287 274 259 247 242 240 241
112 110 112 107 96 91 82 74 44 31 12 11 20 87 108 113 117 117 117 110 117 105 104 106 112 112 107 96 103 121 127 119 101 66 73 86 96 107 110 110 110 112 136 169 178 149 348 301 280 285 297 311 317 322 312 295 278 280 284 275 271 261
110 107 106 105 101 91 83 77 42 16 16 9 25 99 100 105 113 119 119 120 112 108 108 111 112 115 120 131 127 131 136 136 137 120 88 53 89 93 89 89 89 85 85 78 76 88 97 89 74 63 55 44 40 36 35 39 33 29 26 29 23 6
108 105 107 102 99 98 90 77 31 10 358 357 39 83 95 99 101 114 129 134 133 122 121 119 126 122 121 124 126 134 133 143 144 142 137 121 108 74 56 55 53 55 63 61 60 54 53 53 52 48 45 43 38 31 20 27 11 359 39 55 48 28
112 108 105 108 104 96 85 72 14 351 350 357 60 93 93 99 102 102 97 105 116 119 125 127 123 127 127 125 125 127 123 125 122 135 141 151 149 143 118 64 7 23 55 59 45 44 48 46 45 45 41 36 31 21 7 34 30 17 356 22 38 44
108 110 109 104 102 97 92 63 351 354 337 22 92 99 104 107 111 109 112 109 108 110 114 115 116 118 120 120 121 118 120 120 120 114 117 107 103 117 117 90 33 356 8 51 43 41 44 52 53 57 48 44 41 31 33 58 39 54 32 40 10 35